[[{"header":{"parameterUnit":"m.s-1","parameterCategory":1,"la1":30.2991,"la2":30.254,"lo1":-89.0895,"lo2":-89.0444,"dy":0.0017,"dx":0.0017,"nx":28,"ny":28,"refTime":"2025-02-12T09:00:00:Z","depth":0,"parameterNumber":2,"parameterNumberName":"U-component_of_WINDS"},"data":[0,0,0,0,0,0,0,0,0,0,0,0,0,0,0,0,0,0,0,0,0,0,0,0,0,0,0,0,0,0,0,0,0,0,0,0,0,0,0,0,0,0,0,0,0,0,0,0,0,0,0,0,0,0,0,0,0,0,-0.635,-0.6351,0,-0.6475,-0.6476,-0.6477,-0.6549,-0.6549,-0.655,-0.655,-0.6674,-0.6677,-0.668,0,0,0,0,0,0,0,0,0,0,0,0,0,-0.6168,-0.6171,-0.6349,-0.6351,-0.6353,-0.6474,-0.6476,-0.6478,-0.6549,-0.655,-0.655,-0.655,-0.6673,-0.6677,-0.6681,0,0,0,0,0,0,0,0,0,0,0,0,0,-0.6265,-0.6172,-0.6349,-0.6403,-0.6409,-0.6474,-0.6476,-0.6478,-0.6549,-0.655,-0.655,-0.655,-0.6672,-0.6677,-0.6681,-0.6701,0,0,-0.6695,-0.6697,0,0,0,0,0,0,0,0,-0.626,-0.6272,-0.6393,-0.6399,-0.6406,-0.6497,-0.6458,-0.6553,-0.6549,-0.6496,-0.655,-0.6551,-0.6615,-0.6624,-0.6647,-0.6707,-0.6712,-0.6696,-0.6698,-0.67,-0.6702,0,0,0,0,0,0,0,-0.6253,-0.6267,-0.6399,-0.6395,-0.6403,-0.6419,-0.6434,-0.6476,-0.6551,-0.65,-0.6506,-0.652,-0.6618,-0.6642,-0.665,-0.6714,-0.6695,-0.6699,-0.6702,-0.6704,-0.6796,-0.6796,0,0,0,0,0,0,-0.6238,-0.6261,-0.6395,-0.6403,-0.6333,-0.6422,-0.6438,-0.6467,-0.6551,-0.6564,-0.652,-0.6523,-0.6634,-0.6644,-0.6655,-0.6683,-0.67,-0.6705,-0.6707,-0.6796,-0.6796,-0.6796,0,0,0,0,0,0,-0.6234,-0.6249,-0.639,-0.6333,-0.6352,-0.6425,-0.6457,-0.6469,-0.6493,-0.6566,-0.6579,-0.653,-0.6635,-0.6648,-0.6689,-0.6689,-0.6707,-0.6711,-0.6797,-0.6796,-0.6796,-0.6741,0,0,0,0,0,0,-0.6228,-0.6247,-0.6257,-0.6333,-0.6355,-0.6423,-0.6457,-0.6472,-0.6501,-0.6507,-0.6579,-0.6591,-0.6636,-0.6682,-0.6694,-0.6695,-0.6714,-0.6797,-0.6797,-0.6796,-0.6743,-0.6738,-0.6735,0,0,0,0,0,-0.6222,-0.6236,-0.6257,-0.6273,-0.6369,-0.6423,-0.6436,-0.6488,-0.6501,-0.6511,-0.6557,-0.6589,-0.6686,-0.6685,-0.6699,-0.6702,-0.6797,-0.6797,-0.6796,-0.6745,-0.6739,-0.6735,0,0,0,0,0,0,-0.6157,-0.6247,-0.6271,-0.6311,-0.6359,-0.6435,-0.6449,-0.6481,-0.6525,-0.6529,-0.659,-0.6606,-0.664,-0.6675,-0.6673,-0.6725,-0.6745,-0.6747,-0.6702,-0.6697,-0.6693,-0.6684,-0.6718,0,0,0,0,0,-0.6147,-0.6185,-0.6261,-0.6289,-0.6312,-0.6376,-0.6402,-0.6438,-0.6489,-0.651,-0.6559,-0.6607,-0.6649,-0.6675,-0.6717,-0.6748,-0.6764,-0.6757,-0.6752,-0.6749,-0.675,-0.6768,-0.6765,-0.6794,-0.6794,-0.6794,0,0,-0.6128,-0.6181,-0.6202,-0.6277,-0.6319,-0.6355,-0.6393,-0.643,-0.6458,-0.6515,-0.6558,-0.6595,-0.6652,-0.6688,-0.6707,-0.6718,-0.6745,-0.6748,-0.6744,-0.6748,-0.6767,-0.6764,-0.6762,-0.6793,-0.6793,-0.6793,0,0,-0.6111,-0.6156,-0.6183,-0.6224,-0.6287,-0.6329,-0.6336,-0.6407,-0.6435,-0.6478,-0.6522,-0.6554,-0.6625,-0.6664,-0.6693,-0.6689,-0.672,-0.6701,-0.6679,-0.6696,-0.6694,-0.6693,-0.6691,-0.669,-0.6702,-0.6702,-0.6702,0,-0.6078,-0.6137,-0.6193,-0.6228,-0.626,-0.6314,-0.6342,-0.6378,-0.645,-0.647,-0.6483,-0.6572,-0.6614,-0.666,-0.6659,-0.668,-0.6689,-0.6694,-0.669,-0.6689,-0.6688,-0.6688,-0.6687,-0.6699,-0.6699,-0.6699,-0.67,0,-0.6094,-0.6133,-0.6148,-0.6218,-0.6251,-0.6281,-0.6341,-0.6367,-0.6399,-0.644,-0.6482,-0.6535,-0.6589,-0.6602,-0.6634,-0.6652,-0.6657,-0.6679,-0.67,-0.6682,-0.6682,-0.6682,-0.6695,-0.6696,-0.6697,-0.6697,0,0,-0.6041,-0.6141,-0.6145,-0.6177,-0.625,-0.6281,-0.6313,-0.6367,-0.6388,-0.6435,-0.6463,-0.6521,-0.6542,-0.6574,-0.6611,-0.6626,-0.6619,-0.6646,-0.6648,-0.6639,-0.6641,-0.6624,-0.6623,-0.6639,-0.664,-0.664,-0.6636,0,-0.6035,-0.6098,-0.6149,-0.6192,-0.6229,-0.628,-0.6308,-0.6355,-0.6393,-0.6428,-0.647,-0.651,-0.6534,-0.6554,-0.6571,-0.6616,-0.662,-0.6617,-0.6665,-0.6666,-0.665,-0.6623,-0.6606,-0.66,-0.6636,-0.6636,-0.6637,0,-0.6037,-0.6084,-0.6131,-0.6199,-0.6216,-0.6241,-0.6293,-0.6327,-0.638,-0.6406,-0.6442,-0.648,-0.6515,-0.6532,-0.6581,-0.6578,-0.66,-0.6625,-0.6626,-0.6633,-0.6651,-0.6629,-0.66,-0.6599,-0.6637,-0.6637,-0.6637,0,-0.5994,-0.6068,-0.6106,-0.6132,-0.6212,-0.6228,-0.6262,-0.6315,-0.6344,-0.6389,-0.6408,-0.6455,-0.6482,-0.6517,-0.6566,-0.6574,-0.6609,-0.6631,-0.6632,-0.663,-0.6638,-0.6636,-0.6611,-0.6651,-0.6651,-0.6651,-0.6651,0,-0.5982,-0.6009,-0.6088,-0.6111,-0.6142,-0.6199,-0.6227,-0.6265,-0.6312,-0.6343,-0.6389,-0.6416,-0.6479,-0.6514,-0.6552,-0.6586,-0.6597,-0.6619,-0.6629,-0.6615,-0.6612,-0.6631,-0.6633,-0.6651,-0.6651,-0.6651,-0.6651,0,-0.594,-0.5994,-0.6038,-0.611,-0.6129,-0.6148,-0.621,-0.6233,-0.6273,-0.6311,-0.6323,-0.6386,-0.6429,-0.6481,-0.654,-0.6566,-0.6596,-0.6611,-0.6578,-0.6584,-0.6582,-0.6582,-0.6568,-0.6569,-0.6608,-0.6607,-0.6607,0,-0.593,-0.5952,-0.6026,-0.605,-0.6083,-0.6121,-0.615,-0.6206,-0.6234,-0.6296,-0.6312,-0.6358,-0.6398,-0.6464,-0.6514,-0.6559,-0.6575,-0.6567,-0.6582,-0.6568,-0.6575,-0.6574,-0.6576,-0.6564,-0.6563,-0.6562,-0.6562,0,-0.5905,-0.593,-0.5972,-0.6022,-0.6055,-0.6097,-0.6141,-0.6158,-0.6222,-0.6251,-0.6296,-0.6327,-0.6388,-0.6433,-0.6484,-0.6517,-0.655,-0.6557,-0.6559,-0.6546,-0.6526,-0.6537,-0.6568,-0.6557,-0.6557,-0.6558,-0.6558,-0.6558,-0.5879,-0.59,-0.5956,-0.6,-0.6038,-0.6078,-0.6104,-0.6147,-0.6186,-0.624,-0.627,-0.6314,-0.6365,-0.6437,-0.6469,-0.6503,-0.6515,-0.6518,-0.652,-0.652,-0.6516,-0.652,-0.6512,-0.6512,-0.6513,-0.6513,-0.6513,0,-0.5857,-0.5895,-0.5935,-0.5995,-0.6028,-0.6057,-0.6106,-0.6132,-0.6171,-0.6216,-0.6255,-0.6305,-0.6349,-0.6402,-0.6448,-0.6465,-0.6481,-0.6475,-0.6475,-0.6482,-0.6502,-0.6495,-0.6462,-0.6462,-0.6462,-0.6462,-0.6462,-0.6462,-0.585,-0.5888,-0.5919,-0.5976,-0.6013,-0.6057,-0.6083,-0.6119,-0.6156,-0.621,-0.6247,-0.6282,-0.633,-0.638,-0.6421,-0.6435,-0.645,-0.644,-0.6458,-0.6476,-0.6481,-0.6485,-0.6479,-0.6442,-0.6442,-0.6436,-0.6435,-0.6435]},{"header":{"parameterUnit":"m.s-1","parameterCategory":1,"la1":30.2991,"la2":30.254,"lo1":-89.0895,"lo2":-89.0444,"dy":0.0017,"dx":0.0017,"nx":28,"ny":28,"refTime":"2025-02-12T09:00:00:Z","depth":0,"parameterNumber":3,"parameterNumberName":"V-component_of_WINDS"},"data":[0,0,0,0,0,0,0,0,0,0,0,0,0,0,0,0,0,0,0,0,0,0,0,0,0,0,0,0,0,0,0,0,0,0,0,0,0,0,0,0,0,0,0,0,0,0,0,0,0,0,0,0,0,0,0,0,0,0,7.6894,7.6897,0,7.7145,7.7148,7.7151,7.7206,7.7204,7.7202,7.72,7.7463,7.7472,7.748,0,0,0,0,0,0,0,0,0,0,0,0,0,7.6469,7.6477,7.6894,7.6897,7.69,7.7145,7.7148,7.7151,7.7206,7.7204,7.7202,7.72,7.746,7.747,7.7481,0,0,0,0,0,0,0,0,0,0,0,0,0,7.668,7.6479,7.6893,7.6957,7.6965,7.7144,7.7148,7.7152,7.7207,7.7204,7.7201,7.7199,7.7457,7.7469,7.7482,7.7618,0,0,7.7522,7.7528,0,0,0,0,0,0,0,0,7.6668,7.6696,7.6944,7.6953,7.6962,7.7141,7.7095,7.7309,7.7207,7.7115,7.72,7.7197,7.7359,7.7379,7.7433,7.763,7.7641,7.7523,7.7531,7.7537,7.7541,0,0,0,0,0,0,0,7.6654,7.6685,7.6993,7.6948,7.6959,7.6975,7.7002,7.7136,7.7249,7.7123,7.7127,7.7156,7.7363,7.742,7.7439,7.7645,7.7523,7.7535,7.7543,7.7548,7.7971,7.7974,0,0,0,0,0,0,7.6627,7.6673,7.6985,7.7001,7.6805,7.6985,7.7015,7.7087,7.7248,7.727,7.7158,7.7158,7.7399,7.7424,7.7449,7.7621,7.7537,7.7549,7.7556,7.7968,7.7972,7.7976,0,0,0,0,0,0,7.6618,7.6654,7.6975,7.6838,7.688,7.6995,7.7075,7.7093,7.715,7.7275,7.7296,7.7195,7.7398,7.743,7.7576,7.7631,7.7555,7.7567,7.7964,7.7969,7.7974,7.7965,0,0,0,0,0,0,7.6605,7.665,7.6701,7.6839,7.6887,7.7096,7.7078,7.71,7.7172,7.7174,7.7315,7.7336,7.7398,7.7556,7.7589,7.7648,7.7577,7.7959,7.7966,7.7972,7.7961,7.7969,7.7976,0,0,0,0,0,7.659,7.6689,7.6703,7.6741,7.6953,7.7099,7.7127,7.7195,7.7176,7.7229,7.731,7.7331,7.7619,7.7571,7.7608,7.7671,7.7956,7.7964,7.7972,7.7957,7.7967,7.7976,0,0,0,0,0,0,7.6556,7.6708,7.6726,7.6872,7.6972,7.7108,7.7177,7.7203,7.7312,7.7309,7.7391,7.7423,7.7564,7.7632,7.7575,7.7813,7.7787,7.7803,7.7764,7.7774,7.7782,7.7764,7.7588,0,0,0,0,0,7.6565,7.6668,7.6797,7.6913,7.6963,7.7061,7.7127,7.7171,7.7279,7.7322,7.7413,7.7519,7.7634,7.7707,7.782,7.797,7.8005,7.8033,7.804,7.8046,7.8059,7.8149,7.8164,7.8001,7.8001,7.8001,0,0,7.6585,7.6681,7.6742,7.6909,7.6992,7.71,7.7096,7.721,7.7293,7.734,7.7484,7.7554,7.7678,7.7827,7.7898,7.7889,7.8112,7.8056,7.806,7.807,7.8158,7.8174,7.8187,7.8006,7.8005,7.8004,0,0,7.6679,7.676,7.6868,7.6951,7.7076,7.7142,7.7167,7.73,7.7349,7.7494,7.7533,7.7633,7.7828,7.7916,7.7986,7.8115,7.8141,7.815,7.8191,7.8277,7.829,7.8301,7.8351,7.8368,7.8162,7.8162,7.8162,0,7.6689,7.6852,7.692,7.7034,7.7108,7.7155,7.7267,7.7345,7.7501,7.7553,7.7539,7.7787,7.7873,7.8046,7.8078,7.8132,7.8167,7.8135,7.8282,7.8294,7.8306,7.8355,7.8373,7.8163,7.8162,7.8162,7.8162,0,7.686,7.6973,7.7045,7.7194,7.7276,7.7388,7.7477,7.7553,7.759,7.7658,7.7807,7.7913,7.8049,7.8093,7.8131,7.8273,7.8263,7.8265,7.8241,7.8321,7.8369,7.8388,7.8163,7.8163,7.8163,7.8163,0,0,7.6939,7.7125,7.7151,7.7221,7.7363,7.7453,7.7569,7.7701,7.7766,7.7873,7.7975,7.814,7.8143,7.8222,7.8271,7.8346,7.8447,7.8339,7.8344,7.8358,7.8615,7.8615,7.8635,7.8464,7.8468,7.8471,7.8606,0,7.7052,7.7258,7.7325,7.7498,7.7605,7.7653,7.7754,7.7855,7.7922,7.8025,7.81,7.8217,7.821,7.8259,7.8335,7.8418,7.85,7.8409,7.8563,7.8568,7.8533,7.8659,7.8659,7.8781,7.8624,7.8627,7.863,0,7.7211,7.732,7.7503,7.7635,7.7683,7.7773,7.7901,7.7998,7.8114,7.8158,7.8248,7.8292,7.8418,7.8385,7.8563,7.85,7.8567,7.8618,7.8625,7.8644,7.8605,7.8684,7.8821,7.884,7.8659,7.8656,7.8654,0,7.7254,7.7446,7.7582,7.764,7.7796,7.7859,7.7928,7.8041,7.8118,7.8231,7.8282,7.8408,7.8478,7.8577,7.8655,7.8623,7.8827,7.88,7.8871,7.8869,7.8913,7.8909,7.9065,7.8951,7.8951,7.8951,7.895,0,7.7374,7.7486,7.7603,7.7687,7.7815,7.7892,7.8017,7.8089,7.819,7.8291,7.834,7.8434,7.853,7.8638,7.87,7.884,7.8871,7.8912,7.8928,7.891,7.8905,7.8956,7.8951,7.8956,7.8954,7.8953,7.8953,0,7.7444,7.7527,7.7679,7.7815,7.7852,7.794,7.8059,7.8144,7.8213,7.8341,7.8376,7.8486,7.8616,7.8703,7.8869,7.8911,7.9065,7.9077,7.9025,7.9033,7.91,7.9094,7.9297,7.9329,7.919,7.9191,7.9192,0,7.7516,7.7603,7.7749,7.782,7.7889,7.8001,7.808,7.816,7.824,7.8381,7.845,7.8583,7.8694,7.8901,7.8997,7.9126,7.9144,7.9206,7.9164,7.9144,7.9149,7.9144,7.9155,7.9213,7.9214,7.9215,7.9216,0,7.7638,7.7675,7.7785,7.7911,7.8002,7.8105,7.8209,7.8265,7.8364,7.8452,7.8585,7.8671,7.8842,7.8975,7.9113,7.9187,7.922,7.9228,7.9252,7.9236,7.9203,7.9225,7.9047,7.9224,7.9223,7.9223,7.9222,7.9222,7.7714,7.7795,7.7911,7.8033,7.8119,7.8215,7.8303,7.8384,7.8495,7.8639,7.8681,7.8821,7.8939,7.9128,7.9205,7.9318,7.9312,7.9345,7.9354,7.9362,7.9364,7.9183,7.9343,7.9343,7.9343,7.9342,7.9342,0,7.7841,7.7918,7.8029,7.8172,7.827,7.8289,7.8406,7.8487,7.8609,7.8715,7.8824,7.8979,7.9109,7.9216,7.9352,7.9422,7.9441,7.9455,7.9452,7.947,7.936,7.9327,7.9438,7.9438,7.9438,7.9438,7.9438,7.9438,7.7918,7.8057,7.8108,7.8292,7.837,7.8506,7.8571,7.8662,7.8748,7.8919,7.9027,7.9095,7.9204,7.9348,7.947,7.9498,7.9547,7.9559,7.9591,7.9487,7.9477,7.9467,7.9437,7.9568,7.9568,7.9692,7.9693,7.9694]}]]